This demonstration page uses our WeatherBlox Daily Observations layout. Learn more.

Left ArrowRight Arrow

38.88101, -77.10428

Hourly Observations for February 7, 2021

Temp ( °F °C ) Dew Point ( °F °C ) Humidity (%) Winds ( mph kmh ) Pressure ( in mb ) Visibility ( mi km ) Precip ( " mm )
12:52 am 00:52 Cloudy 42 5.6 27 -2.8 55 55 Calm 30.06 1018 10 16 0.00 0.00
1:52 am 01:52 Cloudy 43 6.1 29 -1.7 58 58 S 8 13 30.02 1017 10 16 0.00 0.00
2:52 am 02:52 Cloudy 43 6.1 31 -0.6 63 63 SSE 7 11 30.00 1016 10 16 0.00 0.00
3:52 am 03:52 Cloudy with Light Rain 42 5.6 35 1.7 76 76 S 16 26 30.01 1016 10 16 0.01 0.25
4:05 am 04:05 Cloudy with Light Rain 41 5 35 1.7 79 79 S 13 20 30.00 1016 7 11 0.02 0.51
4:52 am 04:52 Cloudy with Light Rain 40 4.4 36 2.2 86 86 SE 8 13 29.97 1015 10 16 0.05 1.27
5:32 am 05:32 Cloudy with Light Rain 39 3.9 35 1.7 86 86 Calm 29.96 1015 10 16 0.02 0.51
5:49 am 05:49 Cloudy with Light Rain 39 4 36 2 87 87 NNE 3 6 29.96 1015 8 13 0.04 1.02
5:52 am 05:52 Cloudy with Light Rain 39 3.9 35 1.7 86 86 VRB 3 6 29.95 1014 8 13 0.04 1.02
6:52 am 06:52 Cloudy with Light Rain 37 2.8 34 1.1 89 89 NNE 6 9 29.93 1014 5 8 0.09 2.29
6:55 am 06:55 Cloudy with Light Rain 37 2.8 34 1.1 89 89 NNE 7 11 29.94 1014 5 8 0.00 0.00
7:25 am 07:25 Cloudy with Light Rain 37 2.8 34 1.1 89 89 N 6 9 29.95 1014 8 13 0.03 0.76
7:52 am 07:52 Cloudy with Light Snow 35 1.7 33 0.6 93 93 NNW 7 11 29.95 1014 3 5 0.07 1.78
8:01 am 08:01 Cloudy with Light Snow 34 1.1 32 0 92 92 NNW 8 13 29.96 1015 2 3 0.02 0.51
8:18 am 08:18 Cloudy with Light Snow 34 1.1 32 0 92 92 NNW 8 13 29.96 1015 1 2 0.04 1.02
8:52 am 08:52 Cloudy with Light Snow 33 0.6 32 0 96 96 N 6 9 29.94 1014 1 2 0.08 2.03
9:13 am 09:13 Cloudy with Light Snow 34 1.1 32 0 92 92 NNE 7 11 29.93 1014 3 4 0.03 0.76
9:35 am 09:35 Cloudy with Light Snow 34 1.1 33 0.6 97 97 N 8 13 29.93 1014 5 8 0.04 1.02
9:52 am 09:52 Cloudy with Light Snow 35 1.7 33 0.6 93 93 N 8 13 29.92 1013 4 6 0.05 1.27
10:52 am 10:52 Cloudy with Light Snow 35 1.7 33 0.6 93 93 NNW 10 17 29.92 1013 4 6 0.04 1.02
11:07 am 11:07 Cloudy with Light Snow 35 1.7 33 0.6 93 93 NNW 8 13 29.92 1013 3 5 0.01 0.25
11:52 am 11:52 Cloudy with Light Wintry Mix 36 2.2 34 1.1 93 93 NW 10 17 29.91 1013 8 13 0.04 1.02
12:52 pm 12:52 Cloudy with Light Wintry Mix 36 2.2 34 1.1 93 93 NNW 14 22 29.89 1012 9 14 0.02 0.51
1:37 pm 13:37 Cloudy 39 3.9 36 2.2 89 89 NNW 12 19 29.89 1012 10 16 0.00 0.00
1:52 pm 13:52 Cloudy 41 5 37 2.8 86 86 NNW 12 19 29.88 1012 10 16 0.00 0.00
2:52 pm 14:52 Cloudy 43 6.1 37 2.8 80 80 NW 13 20 29.91 1013 10 16 0.00 0.00
2:54 pm 14:54 Partly Cloudy 43 6.1 36 2.2 76 76 NW 14 22 29.91 1013 10 16 0.00 0.00
3:52 pm 15:52 Partly Cloudy 42 5.6 34 1.1 73 73 NW 14 22 29.92 1013 10 16 0.00 0.00
4:52 pm 16:52 Partly Cloudy 41 5 32 0 70 70 NNW 13 20 29.96 1015 10 16 0.00 0.00
5:52 pm 17:52 Mostly Cloudy 39 3.9 25 -3.9 57 57 WNW 16 26 29.99 1016 10 16 0.00 0.00
6:52 pm 18:52 Partly Cloudy 37 2.8 17 -8.3 44 44 WNW 13 20 30.06 1018 10 16 0.00 0.00
7:52 pm 19:52 Mostly Clear 35 1.7 14 -10 42 42 NW 14 22 30.13 1020 10 16 0.00 0.00
8:52 pm 20:52 Mostly Clear 34 1.1 11 -11.7 38 38 WNW 8 13 30.16 1021 10 16 0.00 0.00
9:52 pm 21:52 Mostly Clear 32 0 12 -11.1 43 43 NNW 7 11 30.19 1022 10 16 0.00 0.00
10:52 pm 22:52 Mostly Clear 32 0 9 -12.8 38 38 N 7 11 30.21 1023 10 16 0.00 0.00
11:52 pm 23:52 Clear 28 -2.2 9 -12.8 44 44 NNW 8 13 30.24 1024 10 16 0.00 0.00

Powered by AerisWeather